STARLINK-11510, 62516

Orbit data source: Space-Track

STARLINK-11510, 62516 is a payload satellite owned by SpaceX/Seattle (US) in LEO that was launched on Wed, 08 Jan 2025 UTC via an FALCON 9 launch vehicle from the Air Force Eastern Test Range (AFETR). Payload-class satellites include a variety of spacecraft equipped with specific instruments for various scientific and technological missions. These include communications satellites like Starlink; space stations such as the ISS; scientific satellites like the Hubble; Earth observation satellites from companies like Planet Labs, Umbra, and HawkEye 360; GPS; miniature CubeSats for education and research; and military/defense satellites.

Loading next visibility...
Identifier
62516, 2025-004F
Orbit
LEO
Country
Flag of USUS
Related business
Manufacturer
SpaceX/Seattle
Mission
Operational Commercial Communications
Bus & Motor
STARLINK V2MD, Unknown motor
Mass
960 kg wet, ~910 kg dry
Launch date (UTC)
2025-01-08 (10 months ago)
Launch vehicle
FALCON 9
Launch site
Air Force Eastern Test Range (AFETR)
Object type
Payload
Rocket body
Debris
Shape & HBR
Box + 2 Pan, 18.1 m
Radar Cross Section
36.964 m², Large (>1 m²)

Expand to show TLE details & history
Last TLE update: 9 hours ago

TLE from 9 hours ago
0 STARLINK-11510
1 62516U 25004F   25308.80063272  .00388288  00000-0  28917-2 0  9993
2 62516  42.9987 103.7954 0001505 295.4430  64.6281 15.70829039 47561
Epoch: 2025-11-04T19:12Z
TLE epoch observation values (Epoch: 2025-11-04T19:12:54.667Z)
Latitude
-0.0001°
Longitude
131.28507°
Altitude
355.863 km
Speed
7.698 km/s
True Right ascension
06h 55m 10s
True Declination
0° 00' 00"
Sunlit
Object was in full shadow at epoch
Visualization orbit readout
Latitude
Unknown
Longitude
Unknown
Altitude
Unknown
Speed
Unknown
Apparent Right ascension
Unknown
Apparent Declination
Unknown
Sunlit
N/A
Visualization observer readout
Local Sidereal Time
00:16:31
Azimuth
Unknown
Elevation
Unknown
Doppler factor
Unknown
Orbital elements
Apogee altitude
359.522 km
Perigee altitude
357.494 km
Semi-major axis
6,736.645 km
Eccentricity
0.00015
Inclination
42.9987°
RAAN
103.7954°
Arg. of periapsis
295.443°
True anomaly
64.64368°
Mean anomaly
64.6281°
Eccentric anomaly
64.63589°
Mean motion
3.92534 °/min
Orbital period
91.71 mins
BSTAR
0.0028917
Loading maneuver chart data...
Computing Atmospheric mass density...
Loading historical data...
Loading historical data...
Loading historical data...
Loading historical data...
Loading historical data...
Loading historical data...
Loading historical data...

Documentation

Showing up to 5 results
|